When you browse on this site, cookies collect data to enhance your experience and personalize the content and advertising you see.
Visit our Privacy Policy to learn more. By continuing to use the site, you agree to this use of cookies and data.
  • In Netherlands
  • List of Countries
  • For 7 days
  • Water Temperature
  • Weather Map
  • Weather Widgets
  • user-avatar
    Login

    Hourly Weather Poledno

    Today, 22 September, Sunday

    Time Temperature Precipitation Wind Pressure Humidity
    00:00 +11°C° 0 mm 1 mps 756 mmHg 93%
    01:00 +11°C° 0 mm 1 mps 756 mmHg 93%
    02:00 +10°C° 0 mm 1 mps 756 mmHg 93%
    03:00 +10°C° 0 mm 1 mps 756 mmHg 94%
    04:00 +9°C° 0 mm 2 mps 756 mmHg 94%
    05:00 +10°C° 0 mm 1 mps 756 mmHg 92%
    06:00 +11°C° 0 mm 1 mps 756 mmHg 90%
    07:00 +12°C° 0 mm 1 mps 756 mmHg 88%
    08:00 +14°C° 0 mm 2 mps 755 mmHg 79%
    09:00 +16°C° 0 mm 2 mps 755 mmHg 70%
    10:00 +18°C° 0 mm 2 mps 755 mmHg 61%
    11:00 +19°C° 0 mm 2 mps 755 mmHg 56%
    12:00 +21°C° 0 mm 2 mps 754 mmHg 51%
    13:00 +23°C° 0 mm 2 mps 754 mmHg 46%
    14:00 +23°C° 0 mm 2 mps 754 mmHg 46%
    15:00 +23°C° 0 mm 1 mps 753 mmHg 46%
    16:00 +23°C° 0 mm 1 mps 753 mmHg 46%
    17:00 +21°C° 0 mm 1 mps 753 mmHg 53%
    18:00 +19°C° 0 mm 1 mps 753 mmHg 59%
    19:00 +16°C° 0 mm 1 mps 753 mmHg 65%
    20:00 +15°C° 0 mm 1 mps 753 mmHg 70%
    21:00 +14°C° 0 mm 1 mps 753 mmHg 76%
    22:00 +14°C° 0 mm 2 mps 753 mmHg 81%
    23:00 +13°C° 0 mm 2 mps 753 mmHg 83%

    Tomorrow, 23 September, Monday

    Time Temperature Precipitation Wind Pressure Humidity
    00:00 +13°C° 0 mm 2 mps 754 mmHg 84%
    01:00 +12°C° 0 mm 2 mps 754 mmHg 86%
    02:00 +12°C° 0 mm 2 mps 754 mmHg 88%
    03:00 +12°C° 0 mm 2 mps 754 mmHg 89%
    04:00 +10°C° 0 mm 3 mps 754 mmHg 91%
    05:00 +11°C° 0 mm 3 mps 754 mmHg 91%
    06:00 +11°C° 0 mm 3 mps 754 mmHg 91%
    07:00 +11°C° 0 mm 3 mps 754 mmHg 90%
    08:00 +12°C° 0 mm 3 mps 754 mmHg 83%
    09:00 +14°C° 0 mm 3 mps 754 mmHg 76%
    10:00 +16°C° 0 mm 3 mps 754 mmHg 68%
    11:00 +18°C° 0 mm 3 mps 754 mmHg 64%
    12:00 +19°C° 0 mm 4 mps 754 mmHg 59%
    13:00 +20°C° 0 mm 4 mps 754 mmHg 55%
    14:00 +20°C° 0 mm 4 mps 753 mmHg 56%
    15:00 +20°C° 0 mm 3 mps 753 mmHg 57%
    16:00 +20°C° 0 mm 3 mps 753 mmHg 58%
    17:00 +18°C° 0 mm 3 mps 753 mmHg 65%
    18:00 +16°C° 0 mm 3 mps 753 mmHg 72%
    19:00 +14°C° 0 mm 3 mps 753 mmHg 79%
    20:00 +13°C° 0 mm 3 mps 754 mmHg 80%
    21:00 +12°C° 0 mm 3 mps 754 mmHg 80%
    22:00 +11°C° 0 mm 3 mps 754 mmHg 81%
    23:00 +11°C° 0 mm 3 mps 754 mmHg 83%

    Day after tomorrow, 24 September, Tuesday

    Time Temperature Precipitation Wind Pressure Humidity
    00:00 +10°C° 0 mm 2 mps 753 mmHg 85%
    01:00 +10°C° 0 mm 2 mps 753 mmHg 86%
    02:00 +9°C° 0 mm 2 mps 753 mmHg 88%
    03:00 +9°C° 0 mm 2 mps 753 mmHg 90%
    04:00 +9°C° 0 mm 2 mps 753 mmHg 92%
    05:00 +9°C° 0 mm 2 mps 752 mmHg 91%
    06:00 +9°C° 0 mm 3 mps 752 mmHg 89%
    07:00 +10°C° 0 mm 3 mps 752 mmHg 88%
    08:00 +12°C° 0 mm 3 mps 752 mmHg 80%
    09:00 +14°C° 0 mm 3 mps 752 mmHg 72%
    10:00 +17°C° 0 mm 3 mps 752 mmHg 64%
    11:00 +19°C° 0 mm 3 mps 751 mmHg 60%
    12:00 +20°C° 0 mm 3 mps 751 mmHg 55%
    13:00 +21°C° 0 mm 3 mps 750 mmHg 51%
    14:00 +21°C° 0 mm 3 mps 750 mmHg 55%
    15:00 +20°C° 0 mm 2 mps 750 mmHg 59%
    16:00 +19°C° 0 mm 2 mps 749 mmHg 63%
    17:00 +19°C° 0.1 mm 1 mps 749 mmHg 66%
    18:00 +18°C° 0.1 mm 1 mps 749 mmHg 70%
    19:00 +16°C° 0.1 mm 1 mps 748 mmHg 73%
    20:00 +16°C° 0 mm 1 mps 748 mmHg 75%
    21:00 +15°C° 0 mm 1 mps 748 mmHg 76%
    22:00 +15°C° 0 mm 1 mps 748 mmHg 78%
    23:00 +15°C° 0 mm 1 mps 748 mmHg 79%

    25 September, Wednesday

    Time Temperature Precipitation Wind Pressure Humidity
    00:00 +15°C° 0 mm 1 mps 747 mmHg 79%
    01:00 +15°C° 0 mm 2 mps 747 mmHg 79%
    02:00 +15°C° 0 mm 2 mps 747 mmHg 81%
    03:00 +15°C° 0 mm 2 mps 747 mmHg 83%
    04:00 +14°C° 0 mm 2 mps 746 mmHg 85%
    05:00 +14°C° 0 mm 2 mps 746 mmHg 86%
    06:00 +14°C° 0 mm 2 mps 746 mmHg 87%
    07:00 +14°C° 0 mm 2 mps 746 mmHg 88%
    08:00 +16°C° 0.1 mm 2 mps 746 mmHg 81%
    09:00 +17°C° 0.1 mm 2 mps 746 mmHg 75%
    10:00 +19°C° 0.1 mm 2 mps 746 mmHg 69%
    11:00 +19°C° 0.1 mm 3 mps 746 mmHg 65%
    12:00 +19°C° 0.1 mm 4 mps 746 mmHg 62%
    13:00 +20°C° 0.1 mm 4 mps 745 mmHg 58%
    14:00 +19°C° 0 mm 4 mps 745 mmHg 62%
    15:00 +18°C° 0 mm 3 mps 745 mmHg 66%
    16:00 +18°C° 0 mm 2 mps 745 mmHg 70%
    17:00 +17°C° 0.4 mm 2 mps 745 mmHg 76%
    18:00 +16°C° 0.4 mm 2 mps 745 mmHg 82%
    19:00 +15°C° 0.4 mm 2 mps 745 mmHg 88%
    20:00 +14°C° 0.9 mm 3 mps 746 mmHg 89%
    21:00 +14°C° 0.9 mm 3 mps 746 mmHg 90%
    22:00 +14°C° 0.9 mm 4 mps 746 mmHg 91%
    23:00 +13°C° 0.2 mm 4 mps 746 mmHg 91%

    26 September, Thursday

    Time Temperature Precipitation Wind Pressure Humidity
    00:00 +13°C° 0.2 mm 4 mps 746 mmHg 91%
    01:00 +13°C° 0.2 mm 4 mps 746 mmHg 91%
    02:00 +13°C° 0.2 mm 4 mps 746 mmHg 91%
    03:00 +13°C° 0.2 mm 4 mps 746 mmHg 91%
    04:00 +13°C° 0.2 mm 4 mps 746 mmHg 91%
    05:00 +13°C° 0.1 mm 4 mps 747 mmHg 91%
    06:00 +13°C° 0.1 mm 4 mps 747 mmHg 90%
    07:00 +12°C° 0.1 mm 4 mps 747 mmHg 90%
    08:00 +13°C° 0 mm 4 mps 748 mmHg 85%
    09:00 +14°C° 0 mm 4 mps 748 mmHg 79%
    10:00 +15°C° 0 mm 4 mps 749 mmHg 74%
    11:00 +16°C° 0.4 mm 5 mps 749 mmHg 72%
    12:00 +17°C° 0.4 mm 5 mps 749 mmHg 69%
    13:00 +17°C° 0.4 mm 5 mps 749 mmHg 67%
    14:00 +18°C° 0.5 mm 4 mps 749 mmHg 70%
    15:00 +17°C° 0.5 mm 3 mps 749 mmHg 73%
    16:00 +17°C° 0.5 mm 2 mps 749 mmHg 76%
    17:00 +15°C° 0.1 mm 2 mps 749 mmHg 81%
    18:00 +14°C° 0.1 mm 2 mps 750 mmHg 86%
    19:00 +13°C° 0.1 mm 2 mps 750 mmHg 91%
    20:00 +13°C° 0 mm 2 mps 750 mmHg 91%
    21:00 +13°C° 0 mm 1 mps 751 mmHg 91%
    22:00 +12°C° 0 mm 1 mps 751 mmHg 91%
    23:00 +12°C° 0 mm 1 mps 751 mmHg 91%

    27 September, Friday

    Time Temperature Precipitation Wind Pressure Humidity
    00:00 +12°C° 0 mm 2 mps 751 mmHg 91%
    01:00 +12°C° 0 mm 2 mps 751 mmHg 90%
    02:00 +12°C° 0.1 mm 2 mps 751 mmHg 90%
    03:00 +12°C° 0.1 mm 2 mps 751 mmHg 90%
    04:00 +11°C° 0.1 mm 3 mps 751 mmHg 90%
    05:00 +10°C° 0.4 mm 3 mps 751 mmHg 91%
    06:00 +10°C° 0.4 mm 3 mps 751 mmHg 92%
    07:00 +10°C° 0.4 mm 3 mps 751 mmHg 92%
    08:00 +10°C° 0.1 mm 3 mps 751 mmHg 92%
    09:00 +11°C° 0.1 mm 3 mps 752 mmHg 91%
    10:00 +11°C° 0.1 mm 3 mps 752 mmHg 90%
    11:00 +12°C° 0 mm 3 mps 752 mmHg 89%
    12:00 +12°C° 0 mm 3 mps 752 mmHg 87%
    13:00 +13°C° 0 mm 3 mps 751 mmHg 86%
    14:00 +13°C° 0 mm 3 mps 751 mmHg 86%
    15:00 +13°C° 0 mm 3 mps 751 mmHg 86%
    16:00 +14°C° 0 mm 3 mps 751 mmHg 86%
    17:00 +13°C° 0 mm 3 mps 751 mmHg 88%
    18:00 +13°C° 0 mm 3 mps 751 mmHg 89%
    19:00 +12°C° 0 mm 4 mps 751 mmHg 91%
    20:00 +12°C° 0 mm 4 mps 751 mmHg 92%
    21:00 +12°C° 0 mm 4 mps 751 mmHg 92%
    22:00 +12°C° 0 mm 4 mps 751 mmHg 93%
    23:00 +12°C° 0 mm 4 mps 750 mmHg 94%
    Show more